This is the latest recevied weather packets stored in our database for station/object ALTO-WX. If no packets are shown the sender has not sent any weather packets the latest 10 day(s).
| Time | Temp. | Humidity | Pressure | Rain* | Wind** | Luminosity | Snow |
|---|---|---|---|---|---|---|---|
| 1778211934 | 5.56° C | 56% | 981.2 hPa | 0 mm | - | - | - |
| 1778211050 | 5.56° C | 54% | 981.6 hPa | 0 mm | - | - | - |
| 1778210134 | 6.11° C | 54% | 981.6 hPa | 0 mm | - | - | - |
| 1778209262 | 6.67° C | 54% | 981.6 hPa | 0 mm | - | - | - |
| 1778208333 | 6.67° C | 45% | 981.1 hPa | 0 mm | - | - | - |
| 1778207454 | 7.22° C | 54% | 981.5 hPa | 0 mm | - | - | - |
| 1778206533 | 6.67° C | 54% | 981.4 hPa | 0 mm | - | - | - |
| 1778205662 | 7.22° C | 54% | 981.4 hPa | 0 mm | - | - | - |
| 1778204735 | 7.22° C | 51% | 981.3 hPa | 0 mm | - | - | - |
| 1778203851 | 7.78° C | 51% | 981.3 hPa | 0 mm | - | - | - |
| 1778202934 | 8.89° C | 51% | 981.4 hPa | 0 mm | - | - | - |
| 1778202057 | 9.44° C | 51% | 981.4 hPa | 0 mm | - | - | - |
| 1778201133 | 9.44° C | 45% | 981.9 hPa | 0 mm | - | - | - |
| 1778200251 | 10° C | 48% | 981.8 hPa | 0 mm | - | - | - |
| 1778199333 | 10° C | 48% | 981.7 hPa | 0 mm | - | - | - |
| 1778198467 | 10° C | 48% | 981.7 hPa | 0 mm | - | - | - |
| 1778197533 | 10° C | 45% | 980.9 hPa | 0 mm | - | - | - |
| 1778196653 | 10.56° C | 42% | 981.6 hPa | 0 mm | - | - | - |
| 1778195734 | 10.56° C | 42% | 981.6 hPa | 0 mm | - | - | - |
| 1778194856 | 10.56° C | 42% | 981.6 hPa | 0 mm | - | - | - |
| 1778193933 | 11.11° C | 38% | 981.8 hPa | 0 mm | - | - | - |
| 1778193052 | 11.67° C | 38% | 981.8 hPa | 0 mm | - | - | - |
| 1778192136 | 11.11° C | 38% | 982 hPa | 0 mm | - | - | - |
| 1778191264 | 11.11° C | 38% | 982 hPa | 0 mm | - | - | - |
| 1778190339 | 11.11° C | 39% | 982.3 hPa | 0 mm | - | - | - |
* Rain latest hour (hover to see other rain measurements)
** Current wind speed in m/s (hover to see current wind gust speed)